Location: Quebec
(46.8000°N, 71.2500°W)
Time: 19:52:50
(UTC-05:00)

Tiangong 2 - Pass Details

Date: 14 October 2017
Orbit: 386 x 390 km, 42.8° (Epoch: 14 December)

Event Time Altitude Azimuth Distance (km) Brightness Sun altitude
Exits shadow 06:30:18 - 260° (W) 1,628 3.6 -6.2°
Reaches altitude 10° 06:30:50 10° 257° (WSW) 1,424 3.3 -6.1°
Maximum altitude 06:33:48 34° 190° (S) 661 2.2 -5.6°
Drops below altitude 10° 06:36:45 10° 123° (ESE) 1,425 5.2 -5.1°
Sets 06:38:56 0° 114° (ESE) 2,280 6.8 -4.7°
